Guymon, OK

7:35 AM CST on January 17, 2017 (GMT -0600)
Guymon Municipal

Weather History for KGUY - September, 2013

Change the Weather History Date:

Sunday, September 15, 2013

  Actual Average Record
Temperature  
Mean Temperature 72 °F 71 °F  
Max Temperature 82 °F 86 °F 96 °F (2010)
Min Temperature 62 °F 56 °F 43 °F (2012)
Degree Days  
Heating Degree Days 0 1  
Month to date heating degree days 0 5  
Since 1 July heating degree days 0 6  
Cooling Degree Days 7 7  
Month to date cooling degree days 191 135  
Year to date cooling degree days 1742 1384  
Growing Degree Days 22 (Base 50)    
Moisture  
Dew Point 63 °F    
Average Humidity 72    
Maximum Humidity 93    
Minimum Humidity 51    
Precipitation  
Precipitation 0.14 in 0.06 in 0.16 in (2011)
Month to date precipitation 1.66 0.94  
Year to date precipitation 12.21 15.71  
Snow  
Snow 0.00 in - - ()
Month to date snowfall 0.0  
Since 1 July snowfall 0.0  
Since 1 September snowfall 0.0  
Snow Depth 0.00 in    
Sea Level Pressure  
Sea Level Pressure 29.98 in    
Wind  
Wind Speed 9 mph (NW)    
Max Wind Speed 22 mph    
Max Gust Speed 26 mph    
Visibility 10 miles    
Events Rain , Thunderstorm    
T = Trace of Precipitation, MM = Missing Value Source: NWS Daily Summary

Daily Weather History Graph

Daily Weather History Graph

Search for Another Location

Airport or City:

Trip Planner

Search our weather history database for the weather conditions in past years. The results will help you decide how hot, cold, wet, or windy it might be!

Date:

Astronomy

Sep. 15, 2013 Rise Set
Actual Time 7:28 AM CDT 7:53 PM CDT
Civil Twilight 7:02 AM CDT 8:18 PM CDT
Nautical Twilight 6:32 AM CDT 8:49 PM CDT
Astronomical Twilight 6:01 AM CDT 9:20 PM CDT
Moon 5:17 PM CDT (9/15) 3:14 AM CDT (9/15)
Length of Visible Light 13h 16m
Length of Day
12h 24m
Waxing Gibbous, 82% of the Moon is Illuminated
Sep 15
Waxing Gibbous
Sep 19
Full
Sep 26
Last Quarter
Oct 4
New
Oct 11
First Quarter

Hourly Weather History & Observations

Time (CDT) Temp. Heat Index Dew Point Humidity Pressure Visibility Wind Dir Wind Speed Gust Speed Precip Events Conditions
12:53 AM 70.0 °F - 63.0 °F 78% 29.84 in 10.0 mi South 11.5 mph - N/A   Partly Cloudy
1:53 AM 69.1 °F - 63.0 °F 81% 29.83 in 10.0 mi South 11.5 mph - N/A   Mostly Cloudy
2:53 AM 68.0 °F - 63.0 °F 84% 29.83 in 10.0 mi SSW 8.1 mph - N/A   Clear
3:53 AM 66.0 °F - 63.0 °F 90% 29.84 in 9.0 mi SW 5.8 mph - N/A   Clear
4:53 AM 64.0 °F - 61.0 °F 90% 29.85 in 9.0 mi Calm Calm - N/A   Partly Cloudy
5:53 AM 64.9 °F - 61.0 °F 87% 29.85 in 9.0 mi South 6.9 mph - N/A   Clear
6:53 AM 63.0 °F - 60.1 °F 90% 29.86 in 7.0 mi SSW 5.8 mph - N/A   Clear
7:53 AM 64.0 °F - 61.0 °F 90% 29.90 in 10.0 mi SSW 8.1 mph - N/A   Clear
8:53 AM 66.9 °F - 61.0 °F 81% 29.90 in 10.0 mi SSW 9.2 mph - N/A   Clear
9:53 AM 73.9 °F - 60.1 °F 62% 29.90 in 10.0 mi WSW 10.4 mph - N/A   Clear
10:53 AM 78.1 °F - 59.0 °F 52% 29.91 in 10.0 mi West 10.4 mph - N/A   Clear
11:53 AM 80.1 °F 81.1 °F 61.0 °F 52% 29.92 in 10.0 mi WNW 8.1 mph - N/A   Clear
12:53 PM 81.0 °F 82.2 °F 63.0 °F 54% 29.93 in 10.0 mi Variable 4.6 mph - N/A   Clear
1:53 PM 81.0 °F 82.2 °F 63.0 °F 54% 29.94 in 10.0 mi NNW 9.2 mph 18.4 mph N/A   Clear
2:53 PM 79.0 °F - 63.0 °F 58% 29.94 in 10.0 mi NW 10.4 mph - N/A   Clear
3:11 PM 80.6 °F 81.8 °F 62.6 °F 54% 30.06 in 10.0 mi North 11.5 mph - N/A Thunderstorm Partly Cloudy
3:53 PM 78.1 °F - 62.1 °F 58% 29.96 in 10.0 mi North 8.1 mph - N/A Thunderstorm Partly Cloudy
4:29 PM 75.2 °F - 64.4 °F 69% 30.10 in 10.0 mi SSW 6.9 mph - 0.00 in Rain Light Rain
4:44 PM 69.8 °F - 66.2 °F 88% 30.09 in 2.5 mi WNW 4.6 mph - 0.07 in Rain , Thunderstorm Heavy Thunderstorms and Rain
4:53 PM 72.0 °F - 64.0 °F 76% 29.98 in 7.0 mi NW 3.5 mph - 0.11 in Rain , Thunderstorm Light Thunderstorms and Rain
5:03 PM 71.6 °F - 66.2 °F 83% 30.07 in 10.0 mi North 8.1 mph - 0.00 in Rain Light Rain
5:53 PM 72.0 °F - 66.9 °F 84% 29.97 in 10.0 mi NNW 8.1 mph - 0.00 in Rain Light Rain
6:53 PM 73.0 °F - 66.0 °F 79% 29.97 in 10.0 mi North 6.9 mph - 0.00 in   Clear
7:53 PM 71.1 °F - 66.0 °F 84% 30.00 in 10.0 mi North 17.3 mph - N/A   Mostly Cloudy
8:03 PM 69.8 °F - 64.4 °F 83% 30.11 in 10.0 mi NNE 18.4 mph 26.5 mph N/A   Mostly Cloudy
8:43 PM 69.8 °F - 62.6 °F 78% 30.14 in 10.0 mi NNE 15.0 mph 26.5 mph N/A   Overcast
8:53 PM 66.0 °F - 62.1 °F 87% 30.04 in 10.0 mi NNE 13.8 mph 21.9 mph N/A   Overcast
9:53 PM 64.9 °F - 60.1 °F 84% 30.06 in 10.0 mi NNE 13.8 mph 20.7 mph N/A   Overcast
10:44 PM 64.4 °F - 60.8 °F 88% 30.16 in 10.0 mi NNE 9.2 mph - N/A   Overcast
10:53 PM 64.0 °F - 60.1 °F 87% 30.06 in 10.0 mi NNE 12.7 mph - N/A   Overcast
11:03 PM 62.6 °F - 60.8 °F 94% 30.17 in 10.0 mi NNE 13.8 mph - N/A   Overcast
11:53 PM 63.0 °F - 60.1 °F 90% 30.07 in 10.0 mi North 10.4 mph - N/A   Overcast